STARLINK-11488, 62222

Orbit data source: Space-Track

STARLINK-11488, 62222 is a payload satellite owned by SpaceX/Seattle (US) in LEO that was launched on Thu, 05 Dec 2024 UTC via an FALCON 9 launch vehicle from the Air Force Western Test Range (AFWTR). Payload-class satellites include a variety of spacecraft equipped with specific instruments for various scientific and technological missions. These include communications satellites like Starlink; space stations such as the ISS; scientific satellites like the Hubble; Earth observation satellites from companies like Planet Labs, Umbra, and HawkEye 360; GPS; miniature CubeSats for education and research; and military/defense satellites.

Loading next visibility...
Identifier
62222, 2024-231E
Orbit
LEO
Country
Flag of USUS
Related business
Manufacturer
SpaceX/Seattle
Mission
Operational Commercial Communications
Bus & Motor
STARLINK V2MD, Unknown motor
Mass
960 kg wet, ~910 kg dry
Launch date (UTC)
2024-12-05 (1 year ago)
Launch vehicle
FALCON 9
Launch site
Air Force Western Test Range (AFWTR)
Object type
Payload
Rocket body
Debris
Shape & HBR
Box + 2 Pan, 18.1 m
Radar Cross Section
36.964 m², Large (>1 m²)

Expand to show TLE details & history
Last TLE update: 5 hours ago

TLE from 5 hours ago
0 STARLINK-11488
1 62222U 24231E   26037.83335647 -.00082005  00000-0 -67736-3 0  9992
2 62222  53.1572 253.5011 0001023  92.0979 261.4679 15.69757605  5919
Epoch: 2026-02-06T20:00Z
TLE epoch observation values (Epoch: 2026-02-06T20:00:01.999Z)
Latitude
-5.26795°
Longitude
172.58809°
Altitude
361.442 km
Speed
7.693 km/s
True Right ascension
16h 38m 14s
True Declination
-5° 14' 05"
Sunlit
Object was in daylight at epoch
Visualization orbit readout
Latitude
Unknown
Longitude
Unknown
Altitude
Unknown
Speed
Unknown
Apparent Right ascension
Unknown
Apparent Declination
Unknown
Sunlit
N/A
Visualization observer readout
Local Sidereal Time
02:40:11
Azimuth
Unknown
Elevation
Unknown
Doppler factor
Unknown
Orbital elements
Apogee altitude
360.541 km
Perigee altitude
359.162 km
Semi-major axis
6,737.989 km
Eccentricity
0.0001
Inclination
53.1572°
RAAN
253.5011°
Arg. of periapsis
92.0979°
True anomaly
261.45631°
Mean anomaly
261.4679°
Eccentric anomaly
261.4621°
Mean motion
3.92417 °/min
Orbital period
91.74 mins
BSTAR
-0.00067736
Loading maneuver chart data...
Computing Atmospheric mass density...
Loading historical data...
Loading historical data...
Loading historical data...
Loading historical data...
Loading historical data...
Loading historical data...
Loading historical data...

Documentation

Showing up to 5 results
|